Regional Weather Roundup
Issued by NWS Cleveland, OH

Home | Current Version | Previous Version | Graphics & Text | Print | Product List | Glossary On
Versions: 1 2 3 4 5 6 7 8 9 10 11 12 13 14 15 16 17 18 19 20 21 22 23 24 25 26 27 28 29 30 31 32 33 34 35 36 37 38 39 40 41 42 43 44 45 46 47 48 49 50
000
ASUS41 KCLE 291402
RWRCLE
OHIO REGIONAL WEATHER ROUNDUP
NATIONAL WEATHER SERVICE CLEVELAND, OH
900 AM EST THU JAN 29 2015

NOTE: "FAIR" INDICATES FEW OR NO CLOUDS BELOW 12,000 FEET WITH NO
SIGNIFICANT WEATHER AND/OR OBSTRUCTIONS TO VISIBILITY.

OHZ001>008-015>018-024>027-034-035-043-044-291500-
   NORTHWEST OHIO

CITY           SKY/WX    TMP DP  RH WIND       PRES   REMARKS
DEFIANCE       CLOUDY    36  28  73 S9        29.76F
FINDLAY        CLOUDY    37  29  72 S20G28    29.78F
TOLEDO EXPRESS CLOUDY    32  25  75 S5        29.77F WCI  27
TOLEDO EXEC    CLOUDY    34  24  67 S14       29.79F WCI  25
LIMA           CLOUDY    39  29  67 S16G28    29.79S
$$

OHZ009>014-019>023-028>033-038-089-291500-
   NORTHEAST OHIO

CITY           SKY/WX    TMP DP  RH WIND       PRES   REMARKS
CLE-HOPKINS    CLOUDY    34  19  54 S24G31    29.85F WCI  21
CLE-LAKEFRONT  CLOUDY    34  15  46 S24G39    29.82F WCI  21
CUY CO. ARPT   CLOUDY    34  16  47 S17G29    29.84F WCI  23
LORAIN-ELYRIA  CLOUDY    32  21  64 S24       29.83F WCI  19
ASHTABULA      CLOUDY    28   8  43 S20G30    29.90F WCI  15
AKRON-CANTON   FRZ RAIN  31  16  54 S15       29.90F WCI  20
WOOSTER        MIX PCPN  30  20  66 S21       29.86F WCI  17
MANSFIELD      CLOUDY    31  24  75 S21       29.84F WCI  18
YOUNGSTOWN     CLOUDY    27  10  49 SE13      29.93F WCI  16
$$

OHZ042-051>053-060>062-070>072-077>081-291500-
  SOUTHWEST OHIO

CITY           SKY/WX    TMP DP  RH WIND       PRES   REMARKS
CINC-COVINGTON NOT AVBL
CINC-LUNKEN    CLOUDY    37  32  82 S8        29.90F
HAMILTON       CLOUDY    36  32  85 E5        29.88F
DAYTON         LGT RAIN  36  30  79 S20G26    29.83S
WRIGHT-PAT AFB NOT AVBL
DAYTON GENERAL CLOUDY    36  30  79 S18       29.84F
WILMINGTON     LGT RAIN  35  28  75 S16       29.86F WCI  25
$$

OHZ036-037-039>041-045>050-054>059-063>069-073>076-082>088-291500-
  CENTRAL AND SOUTHEAST OHIO

CITY           SKY/WX    TMP DP  RH WIND       PRES   REMARKS
COLUMBUS       CLOUDY    34  25  69 S12       29.90S WCI  25
OSU AIRPORT    CLOUDY    33  25  72 S10       29.88F WCI  25
BOLTON FIELD   LGT RAIN  32  27  80 S15       29.89F WCI  22
RICKENBACK AFB NOT AVBL
NEWARK         CLOUDY    33  23  66 S7        29.91F WCI  27
MARION         CLOUDY    34  27  75 S18       29.84F WCI  23
LANCASTER      LGT RAIN  34  27  75 SE9       29.90F WCI  27
ZANESVILLE     MIX PCPN  31  20  63 SE8       29.93F WCI  23
NEW PHILLY     CLOUDY    31  16  54 VRB6      29.95F WCI  25
$$


USA.gov is the U.S. government's official web portal to all federal, state and local government web resources and services.